Date,TemperatureHighF,TemperatureAvgF,TemperatureLowF,DewpointHighF,DewpointAvgF,DewpointLowF,HumidityHigh,HumidityAvg,HumidityLow,PressureMaxIn,PressureMinIn,WindSpeedMaxMPH,WindSpeedAvgMPH,GustSpeedMaxMPH,PrecipitationSumIn
2013-1-1,24,19,11,24,17,9,98,91,83,30.03,29.90,9,0,9,0.00
2013-1-2,31,18,8,23,15,7,96,87,70,30.04,29.94,10,2,10,0.01
2013-1-3,37,27,17,32,24,15,98,90,75,30.15,29.94,16,2,16,0.00
2013-1-4,38,27,15,30,23,14,96,86,70,30.17,30.06,14,3,14,0.00
2013-1-5,42,33,26,37,30,23,92,88,79,30.06,29.83,11,3,11,0.00
2013-1-6,38,31,22,36,27,22,97,86,78,30.14,29.81,21,5,21,0.00
2013-1-7,41,31,22,35,28,21,98,90,74,30.16,29.92,15,5,15,0.00
2013-1-8,50,38,29,41,33,27,93,85,69,29.98,29.87,12,5,12,0.00
2013-1-9,53,43,36,43,38,32,95,82,61,30.27,29.91,12,1,12,0.00
2013-1-10,55,41,35,55,39,32,99,92,82,30.25,29.56,13,4,13,0.33
2013-1-11,60,54,49,56,53,48,99,96,85,29.65,29.51,19,8,19,0.04
2013-1-12,54,46,30,53,44,30,99,93,75,29.75,29.56,14,3,14,0.22
2013-1-13,26,21,17,26,20,16,99,94,88,30.12,29.75,0,0,0,0.00
2013-1-14,17,16,16,16,15,15,96,95,94,30.19,30.12,0,0,0,0.00
2013-1-15,28,23,15,25,21,15,99,93,86,30.19,29.91,0,0,0,0.00
2013-1-16,39,34,18,31,29,18,99,84,70,29.92,29.77,11,1,11,0.01
2013-1-17,39,32,25,33,28,23,99,85,65,30.24,29.88,11,2,11,0.00
2013-1-18,25,25,24,24,23,23,94,93,92,30.25,30.24,4,0,4,0.00
2013-1-19,59,45,36,45,38,33,88,77,59,29.87,29.66,14,7,14,0.00
2013-1-20,41,26,20,36,18,14,85,73,65,30.12,29.88,11,3,11,0.00
2013-1-21,20,13,11,16,3,0,87,62,51,30.15,30.04,15,5,15,0.01
2013-1-22,11,10,9,3,2,2,75,70,66,30.16,30.14,8,1,8,0.00
2013-1-23,32,28,22,26,21,15,80,76,73,30.12,29.95,13,5,13,0.00
2013-1-24,26,20,12,16,12,4,81,71,61,30.39,30.06,12,4,12,0.00
2013-1-25,25,25,25,15,14,14,67,64,62,30.06,29.95,12,5,12,0.00
2013-1-26,34,29,17,24,21,11,87,72,59,30.18,29.98,8,1,8,0.00
2013-1-27,26,25,24,22,21,20,89,86,81,30.10,30.07,5,1,5,0.00
2013-1-28,67,56,46,65,56,46,99,98,93,29.73,29.62,15,8,15,0.01
2013-1-29,66,60,52,65,59,52,99,99,97,29.62,29.19,22,8,22,1.00
2013-1-30,52,51,51,52,51,51,99,99,99,29.26,29.17,9,3,9,0.11
2013-1-31,29,21,8,21,15,1,83,76,67,30.11,29.65,16,9,16,0.00
2013-2-1,24,15,6,22,8,0,92,73,61,30.23,29.96,13,6,13,0.00
2013-2-2,37,28,23,28,23,20,95,81,71,29.95,29.82,16,5,16,0.00
2013-2-3,33,30,23,29,22,20,99,75,58,29.92,29.76,21,4,21,0.00
2013-2-4,50,29,26,37,26,23,90,87,60,29.79,29.56,10,2,10,0.00
2013-2-5,29,29,28,27,26,26,92,91,90,29.74,29.72,1,0,2,0.00
2013-2-6,48,36,26,39,33,26,99,88,69,30.00,29.85,10,2,10,0.00
2013-2-7,43,39,34,42,38,32,99,98,91,29.85,29.63,11,4,11,0.28
2013-2-8,37,36,34,37,35,34,99,99,99,29.87,29.80,14,6,14,0.00
2013-2-9,40,34,29,37,32,27,97,90,82,30.14,29.80,11,4,11,0.02
2013-2-10,52,45,38,51,44,37,99,96,76,29.81,29.35,18,9,18,0.25
2013-2-11,46,40,32,37,32,28,88,74,63,29.92,29.49,22,6,22,0.01
2013-2-12,42,35,26,36,32,26,97,86,73,29.93,29.71,8,1,8,0.00
2013-2-13,34,33,32,32,31,31,98,95,92,29.72,29.65,0,0,0,0.00
2013-2-14,50,41,35,40,36,33,95,83,63,29.82,29.55,12,4,12,0.00
2013-2-15,38,32,24,33,21,18,94,66,49,30.02,29.83,19,4,19,0.00
2013-2-16,34,27,18,19,18,12,87,69,50,30.02,29.92,14,3,14,0.00
2013-2-17,43,31,17,29,24,15,93,77,57,29.97,29.69,12,4,12,0.00
2013-2-18,57,44,31,50,41,27,99,89,77,29.69,29.30,26,12,26,0.19
2013-2-19,31,25,20,27,19,13,85,77,64,30.05,29.61,22,7,22,0.00
2013-2-20,25,19,11,18,12,7,86,75,65,30.19,30.03,14,4,14,0.00
2013-2-21,32,26,18,32,25,17,99,95,86,30.10,29.60,16,6,19,0.00
2013-2-22,36,31,24,36,30,21,99,93,85,29.82,29.56,17,4,17,0.18
2013-2-23,35,25,18,28,22,17,95,86,73,29.81,29.75,8,0,8,0.00
2013-2-24,41,29,18,34,26,17,97,88,70,29.91,29.78,5,0,5,0.00
2013-2-25,43,35,27,38,32,26,97,89,77,29.87,29.49,20,6,20,0.00
2013-2-26,36,34,32,35,34,32,99,99,92,29.49,29.16,21,7,21,0.72
2013-2-27,35,33,32,35,32,31,99,99,98,29.61,29.37,14,5,14,0.07
2013-2-28,34,32,32,34,32,31,99,99,96,29.85,29.61,14,4,14,0.01
2013-3-1,35,31,27,32,30,26,99,96,89,29.96,29.82,11,2,11,0.04
2013-3-2,37,28,20,26,23,18,98,83,63,30.00,29.94,17,3,17,0.00
2013-3-3,37,30,16,29,22,15,95,75,58,29.98,29.83,8,1,8,0.00
2013-3-4,42,37,31,36,34,28,95,87,79,29.84,29.59,17,7,17,0.00
2013-3-5,36,33,31,34,31,26,99,92,79,29.84,29.58,27,8,27,0.01
2013-3-6,34,30,27,29,27,24,92,86,79,30.13,29.84,15,4,15,0.00
2013-3-7,42,32,26,36,29,24,97,88,77,30.20,30.11,8,1,8,0.00
2013-3-8,51,39,28,42,35,28,99,88,71,30.22,29.98,13,3,13,0.00
2013-3-9,60,47,39,50,42,36,93,83,65,29.99,29.57,20,6,20,0.02
2013-3-10,54,53,51,49,48,46,90,83,75,29.57,29.55,14,8,14,0.06
2013-3-11,48,36,33,48,35,29,99,96,83,29.73,29.44,14,7,14,0.01
2013-3-12,46,38,28,35,31,26,92,77,64,29.87,29.73,14,8,15,0.00
2013-3-13,41,31,25,26,23,21,90,74,54,30.17,29.95,15,7,15,0.00
2013-3-14,37,29,25,32,25,23,92,87,79,30.16,30.09,8,1,8,0.00
2013-3-16,41,38,36,36,35,34,91,88,81,29.85,29.21,11,3,11,0.00
2013-3-17,36,35,34,34,32,31,92,91,90,29.88,29.22,10,5,11,0.00
2013-3-18,50,38,32,43,35,26,99,90,66,29.77,29.45,13,6,13,0.07
2013-3-19,44,34,27,27,23,19,81,64,43,29.95,29.76,17,5,17,0.00
2013-3-20,34,27,22,26,15,12,83,61,45,30.02,29.88,23,8,23,0.00
2013-3-21,39,26,17,25,18,12,82,71,53,29.90,29.77,8,1,8,0.00
2013-3-22,42,34,23,29,25,20,91,71,54,29.84,29.77,10,1,10,0.00
2013-3-23,47,37,28,32,26,6,79,66,38,29.84,29.78,50,10,50,0.00
2013-3-24,32,32,30,32,31,30,99,99,99,29.53,29.31,15,1,15,0.00
2013-3-25,39,32,28,33,30,28,99,92,77,29.93,29.53,21,4,21,0.00
2013-3-26,43,34,29,32,29,25,92,82,65,30.11,29.93,13,5,13,0.00
2013-3-27,46,34,24,33,27,21,90,77,58,30.17,30.08,7,1,7,0.00
2013-3-28,51,39,25,41,32,22,90,78,67,30.16,30.04,9,1,9,0.00
2013-3-29,62,46,35,50,40,33,92,81,60,30.05,29.97,8,1,8,0.00
2013-3-30,56,48,38,51,45,36,99,90,75,30.00,29.69,14,3,14,0.05
2013-3-31,64,54,43,54,48,36,99,82,62,29.73,29.60,14,3,14,0.00
2013-4-1,49,40,32,36,29,24,84,65,42,30.01,29.73,16,3,16,0.00
2013-4-2,52,37,26,28,25,20,86,62,35,30.12,29.42,12,1,13,0.00
2013-4-3,53,41,28,33,28,22,79,60,40,30.19,29.44,13,3,13,0.00
2013-4-4,64,47,33,34,30,26,77,55,30,30.05,29.20,10,1,10,0.00
2013-4-5,65,52,39,41,37,31,83,58,36,29.96,29.21,10,2,10,0.00
2013-4-6,74,58,49,51,44,40,73,61,37,29.83,29.12,27,8,27,0.00
2013-4-7,78,68,50,60,52,47,91,59,37,29.72,29.56,13,3,13,0.00
2013-4-8,77,67,59,66,62,58,96,83,67,29.66,29.47,18,6,18,0.02
2013-4-9,78,70,62,68,64,60,93,82,68,29.65,29.59,24,7,24,0.00
2013-4-10,78,63,48,71,62,48,99,95,76,29.67,28.78,21,5,21,1.37
2013-4-11,54,48,39,54,46,35,99,94,83,29.50,28.77,14,6,14,0.05
2013-4-12,44,41,38,39,37,34,90,85,77,29.76,28.86,17,6,17,0.00
2013-4-13,58,48,36,46,40,35,94,74,56,29.82,29.10,16,4,16,0.00
2013-4-14,77,70,48,61,57,45,90,65,50,29.67,29.41,21,10,21,0.04
2013-4-15,67,58,50,66,57,49,99,96,76,29.74,29.05,16,4,16,0.25
2013-4-16,50,48,44,49,47,44,99,98,86,29.95,29.08,14,4,14,1.02
2013-4-17,79,56,45,76,55,45,99,97,74,29.94,28.86,18,7,18,0.05
2013-4-18,71,59,40,70,58,38,99,97,89,29.51,28.70,22,9,22,1.15
2013-4-19,47,41,37,38,34,32,91,79,65,29.83,28.87,25,8,25,0.00
2013-4-20,55,42,31,40,34,29,97,77,52,30.14,29.22,11,2,11,0.00
2013-4-21,41,40,39,38,37,36,90,88,86,30.16,30.13,8,3,8,0.00
2013-4-22,71,61,42,54,52,39,88,71,48,30.06,29.78,11,2,11,0.00
2013-4-23,60,52,40,60,49,40,99,93,77,29.81,29.67,14,2,14,0.38
2013-4-24,54,43,36,40,38,36,99,83,54,30.00,29.75,17,4,17,0.05
2013-4-25,64,50,40,42,38,35,87,65,41,30.11,29.96,17,4,17,0.00
2013-4-26,64,53,43,53,47,40,94,80,65,30.14,30.04,14,4,14,0.00
2013-4-27,64,52,50,60,52,46,99,97,90,30.07,29.70,11,2,11,0.38
2013-4-28,63,57,51,60,56,51,99,96,88,29.71,29.06,11,3,11,0.04
2013-4-29,77,63,47,68,59,46,99,88,72,29.72,28.96,16,5,16,0.00
2013-4-30,85,69,60,71,64,60,99,85,55,29.74,28.96,14,6,14,0.00
2013-5-1,85,72,60,67,63,58,96,75,48,29.88,29.74,14,2,14,0.00
2013-5-2,75,67,60,64,61,53,97,83,67,29.95,29.85,17,3,17,0.00
2013-5-4,48,48,47,48,48,47,99,99,99,29.80,29.76,0,0,2,0.26
2013-5-5,64,57,48,62,56,47,99,96,81,29.79,29.68,14,2,14,0.15
2013-5-6,71,62,54,63,59,54,99,90,75,29.77,29.70,11,1,11,0.00
2013-5-7,80,68,60,66,62,59,99,81,55,29.82,29.75,9,0,9,0.00
2013-5-8,84,72,57,67,60,55,97,69,42,29.83,29.75,8,1,8,0.00
2013-5-9,71,65,61,70,64,61,99,97,88,29.77,29.61,12,2,12,0.84
2013-5-10,67,59,53,64,58,53,99,97,87,29.78,29.61,11,2,11,0.00
2013-5-11,65,57,49,60,50,39,99,79,47,29.92,29.74,18,3,18,0.00
2013-5-12,49,46,44,39,38,36,77,74,70,29.93,29.91,4,0,4,0.00
2013-5-17,80,71,63,71,67,61,98,87,72,29.76,29.71,9,1,9,0.00
2013-5-18,83,74,63,72,68,63,99,85,67,29.81,29.69,6,1,6,0.00
2013-5-19,89,78,66,80,73,66,99,85,70,29.70,29.50,12,4,12,0.00
2013-5-20,85,74,64,74,69,63,99,86,65,29.66,29.47,11,6,11,1.42
2013-5-21,81,72,63,74,68,63,99,90,75,29.61,29.47,11,6,11,0.18
2013-5-22,77,69,63,68,64,59,99,86,65,29.63,29.44,8,3,8,0.00
2013-5-23,63,58,53,63,55,52,99,89,83,30.04,29.63,8,1,8,0.00
2013-5-24,69,58,44,52,49,42,99,74,53,30.20,30.04,9,1,11,0.00
2013-5-25,64,56,53,60,53,49,99,90,79,30.17,29.97,11,1,11,0.19
2013-5-26,71,62,53,68,60,52,99,95,85,30.00,29.19,11,3,11,0.26
2013-5-27,82,68,64,76,67,63,99,96,81,29.84,28.95,16,1,17,1.03
2013-5-28,82,72,64,78,70,63,99,94,82,29.69,28.97,21,6,21,0.15
2013-5-29,86,75,63,76,70,63,99,86,68,29.77,29.02,15,4,15,0.44
2013-5-30,83,76,68,77,72,67,99,89,78,29.72,28.98,28,7,28,0.52
2013-5-31,79,71,64,77,70,64,99,98,91,29.71,28.90,18,4,18,0.59
2013-6-1,78,71,64,73,68,62,99,91,73,29.66,29.46,17,6,17,0.25
2013-6-2,64,63,61,63,62,61,99,98,95,29.66,29.64,8,0,8,0.00
2013-6-3,74,63,57,61,57,55,99,82,64,29.90,29.80,6,1,6,0.00
2013-6-4,75,66,54,65,60,54,99,83,67,29.88,29.80,6,1,6,0.00
2013-6-5,81,72,60,69,64,59,99,80,60,29.81,29.65,3,0,3,0.00
2013-6-6,79,71,62,69,65,61,98,83,71,29.67,29.61,4,1,4,0.00
2013-6-7,77,66,57,65,60,57,99,81,62,29.70,29.66,5,0,5,0.00
2013-6-8,84,71,59,67,62,57,97,75,54,29.76,29.69,9,1,9,0.00
2013-6-9,82,70,64,72,66,61,99,88,66,29.75,29.57,14,3,14,0.05
2013-6-10,83,71,64,70,66,63,99,87,62,29.70,29.55,11,1,11,0.00
2013-6-11,90,78,63,78,72,62,99,83,63,29.75,29.63,11,2,11,0.00
2013-6-12,95,85,74,81,77,74,99,80,61,29.73,29.46,17,5,17,0.00
2013-6-13,92,78,68,77,66,60,98,70,41,29.78,29.50,17,3,17,0.00
2013-6-14,85,75,63,68,63,60,89,68,53,29.90,29.73,6,0,6,0.00
2013-6-15,86,76,68,75,69,64,99,80,65,29.87,29.68,15,3,15,0.63
2013-6-16,84,76,68,79,74,67,99,93,83,29.82,29.71,9,0,9,0.09
2013-6-17,87,78,68,80,74,68,99,89,66,29.75,29.66,8,1,8,0.00
2013-6-18,87,75,65,76,70,64,99,84,53,29.78,29.69,10,1,10,0.24
2013-6-19,89,74,62,73,67,60,96,80,58,29.88,29.78,6,1,6,0.00
2013-6-20,94,80,69,78,73,69,99,79,56,29.92,29.83,9,2,9,0.00
2013-6-21,92,83,72,80,75,70,99,79,65,29.90,29.77,12,4,12,0.00
2013-6-22,90,77,70,82,74,69,99,90,71,29.88,29.78,11,3,11,0.02
2013-6-23,84,74,68,78,71,68,99,93,78,29.84,29.69,13,3,13,0.47
2013-6-24,90,79,68,83,76,68,99,90,75,29.87,29.69,11,2,11,0.00
2013-6-25,94,81,74,84,78,73,99,89,66,29.76,29.59,14,3,14,0.00
2013-6-26,86,78,73,84,77,72,99,97,86,29.66,29.44,24,3,24,0.05
2013-6-27,92,82,75,79,75,72,99,81,54,29.66,29.57,13,2,13,0.00
2013-6-28,88,80,71,74,68,62,99,72,45,29.64,29.47,25,3,25,0.00
2013-6-29,78,72,67,71,67,64,99,86,72,29.53,29.43,13,2,13,0.05
2013-6-30,78,70,63,72,67,62,99,90,76,29.71,29.52,9,1,9,0.26
2013-7-1,81,73,63,66,61,55,86,68,52,29.78,29.70,14,3,14,0.00
2013-7-2,72,67,64,67,62,60,95,85,71,29.83,29.75,8,2,8,0.02
2013-7-3,86,71,59,71,65,59,99,82,57,29.87,29.80,6,0,8,0.00
2013-7-4,88,76,64,72,68,64,99,78,56,29.89,29.81,7,1,7,0.00
2013-7-5,91,76,66,76,70,66,99,83,53,29.88,29.80,7,1,8,0.00
2013-7-6,93,77,68,79,72,66,99,87,57,29.85,29.76,8,1,8,0.00
2013-7-7,92,80,68,80,74,66,99,82,65,29.83,29.76,8,2,8,0.00
2013-7-8,90,80,75,82,76,73,95,88,72,29.89,29.78,9,2,11,0.00
2013-7-9,93,85,78,83,80,77,97,85,70,29.83,29.70,10,2,10,0.00
2013-7-10,91,81,73,80,77,72,99,88,62,29.80,29.65,16,3,16,0.08
2013-7-11,84,76,66,70,67,65,99,77,58,29.86,29.79,8,1,8,0.00
2013-7-12,86,74,62,65,63,60,94,69,44,29.93,29.84,4,0,4,0.00
2013-7-13,88,82,64,72,70,63,97,66,56,29.91,29.83,8,1,8,0.00
2013-7-14,72,72,72,69,69,68,90,89,88,29.87,29.86,0,0,0,0.00
2013-7-15,91,82,73,81,78,73,99,88,72,30.04,29.94,4,1,4,0.00
2013-7-16,93,84,74,81,78,74,99,83,65,30.10,30.02,5,1,5,0.00
2013-7-17,95,88,76,82,80,76,99,76,64,30.12,29.98,6,0,6,0.00
2013-7-18,96,86,77,83,80,76,99,81,62,30.01,29.80,7,1,7,0.00
2013-7-19,96,86,76,84,80,76,99,82,61,29.81,29.64,10,3,10,0.00
2013-7-20,90,82,76,82,76,72,95,82,65,29.70,29.62,4,1,4,0.00
2013-7-21,84,77,71,78,75,70,99,94,83,29.73,29.64,4,1,4,1.04
2013-7-22,86,79,70,79,76,70,99,91,73,29.65,29.59,7,1,7,0.01
2013-7-23,82,75,70,78,74,67,99,94,78,29.71,29.55,6,0,6,0.00
2013-7-24,78,70,61,67,62,59,99,77,54,29.83,29.70,8,2,8,0.00
2013-7-25,73,65,60,65,61,58,94,88,74,29.90,29.82,2,0,2,0.00
2013-7-26,77,70,64,73,67,62,99,90,82,29.87,29.72,9,2,9,0.14
2013-7-27,71,62,59,67,61,56,99,95,60,29.79,29.72,10,1,10,0.01
2013-7-28,80,68,53,63,58,53,99,74,53,29.85,29.77,8,1,8,0.00
2013-7-29,63,62,61,59,59,59,93,90,87,29.87,29.84,0,0,0,0.00
2013-7-30,75,70,66,74,69,66,99,97,91,29.92,29.81,6,2,6,0.53
2013-7-31,78,72,68,75,71,68,99,97,88,29.83,29.78,4,1,4,0.00
2013-8-1,84,75,66,75,70,65,99,85,62,29.85,29.77,4,0,4,0.00
2013-8-2,82,74,68,77,72,67,99,93,85,29.78,29.10,9,2,9,0.00
2013-8-3,117,77,20,100,70,-28,99,80,10,29.91,29.72,8,1,8,0.00
2013-8-4,82,72,62,68,66,61,99,83,61,29.97,29.88,4,0,4,0.00
2013-8-5,68,67,66,66,66,65,97,96,95,29.90,29.85,2,0,2,0.00
2013-8-6,90,81,69,82,77,68,99,88,72,29.72,29.62,7,1,7,0.00
2013-8-7,88,78,71,82,76,71,99,93,79,29.72,29.60,8,1,8,0.00
2013-8-8,82,75,70,78,74,69,99,96,86,29.77,29.68,5,0,5,0.00
2013-8-9,85,75,65,73,69,63,99,83,57,29.86,29.75,6,1,6,0.00
2013-8-10,84,75,68,72,69,64,99,82,59,29.93,29.86,9,1,9,0.00
2013-8-11,85,74,62,71,66,60,93,77,58,29.93,29.23,6,0,6,0.00
2013-8-12,84,75,68,79,73,66,99,92,80,29.87,29.08,7,1,7,0.06
2013-8-13,78,70,60,72,66,55,99,85,66,29.93,29.12,8,1,8,0.01
2013-8-14,60,58,56,56,55,55,97,92,84,29.95,29.33,2,0,4,0.00
2013-8-15,70,67,65,60,59,59,80,76,71,29.92,29.88,0,0,0,0.00
2013-8-16,78,69,62,65,62,59,92,78,63,29.95,29.89,5,1,5,0.00
2013-8-17,80,75,60,67,65,59,95,73,63,29.99,29.91,8,1,8,0.00
2013-8-18,83,73,62,70,66,60,96,79,62,29.97,29.88,4,0,4,0.00
2013-8-19,87,81,66,75,72,65,99,75,62,29.92,29.83,8,1,8,0.00
2013-8-20,89,77,67,76,71,66,99,82,60,29.91,29.82,8,1,8,0.00
2013-8-21,89,79,68,77,73,68,99,83,63,29.91,29.81,10,1,10,0.00
2013-8-22,89,79,70,80,74,70,99,86,68,29.88,29.81,8,1,8,0.00
2013-8-23,87,78,69,77,73,69,99,87,70,29.91,29.28,6,1,6,0.00
2013-8-24,90,78,66,78,72,32,99,84,65,30.01,29.31,6,1,6,0.00
2013-8-25,90,79,67,75,70,65,93,77,56,30.06,29.35,8,1,8,0.00
2013-8-26,93,81,72,82,76,68,99,84,62,29.99,29.24,8,1,8,0.00
2013-8-27,93,81,73,80,76,72,99,85,58,29.86,29.14,11,2,11,0.00
2013-8-28,93,82,72,80,75,70,94,80,61,29.81,29.14,10,2,15,0.00
2013-8-29,85,79,74,82,76,73,99,93,84,29.79,29.15,2,0,2,0.00
2013-8-30,97,85,74,83,79,74,99,83,60,29.76,28.99,15,2,15,0.00
2013-8-31,98,86,76,84,79,71,97,81,60,29.64,28.90,11,2,11,0.00
2013-9-1,87,76,71,81,75,71,99,96,80,29.62,28.95,8,0,8,0.00
2013-9-2,82,74,64,71,67,61,98,81,64,29.76,29.64,5,1,5,0.00
2013-9-3,79,72,60,69,65,59,99,78,63,29.88,29.76,8,1,8,0.00
2013-9-4,84,72,61,69,65,60,99,78,55,29.95,29.85,7,0,7,0.00
2013-9-5,82,76,71,70,68,67,87,78,64,29.96,29.92,2,0,2,0.00
2013-9-6,88,76,65,74,69,64,99,80,55,29.98,29.82,8,1,8,0.00
2013-9-7,90,76,66,76,70,66,99,82,56,29.84,29.70,9,1,9,0.00
2013-9-8,86,77,71,79,74,71,99,91,75,29.78,29.69,8,1,8,0.54
2013-9-9,93,82,73,83,77,73,99,88,68,29.75,29.67,9,2,9,0.00
2013-9-10,95,83,74,80,76,73,99,81,56,29.87,29.75,10,1,10,0.00
2013-9-11,94,82,71,78,74,70,98,79,55,29.91,29.80,12,2,12,0.00
2013-9-12,84,74,63,74,68,57,99,83,61,29.87,29.76,13,2,13,0.43
2013-9-13,73,64,55,63,55,50,98,77,47,29.94,29.85,12,1,12,0.00
2013-9-14,74,61,49,57,52,48,98,76,50,29.96,29.83,5,0,5,0.00
2013-9-15,75,62,54,67,58,51,99,88,66,29.90,29.19,9,2,9,0.00
2013-9-16,71,64,58,63,60,56,99,88,70,30.07,29.40,11,2,11,0.00
2013-9-17,78,66,55,67,61,54,99,86,66,30.05,29.26,8,1,8,0.00
2013-9-18,85,73,64,77,70,62,99,91,75,29.87,29.13,13,3,13,0.08
2013-9-19,91,80,72,79,75,72,99,86,64,29.76,29.61,12,4,12,0.00
2013-9-20,79,70,65,77,69,61,99,96,84,29.71,29.65,10,2,10,0.30
2013-9-21,70,65,57,58,56,54,90,73,59,29.74,29.68,11,2,11,0.00
2013-9-22,72,61,51,60,55,50,99,81,60,29.82,29.72,7,1,7,0.00
2013-9-23,75,62,50,61,54,50,99,78,51,29.84,29.73,8,2,8,0.00
2013-9-24,80,66,51,68,60,51,99,84,65,29.76,29.61,11,2,11,0.00
2013-9-25,83,71,60,71,66,60,99,86,65,29.67,29.60,8,1,8,0.00
2013-10-3,86,76,69,76,72,67,99,90,69,29.75,29.64,11,4,11,0.04
2013-10-4,87,76,67,78,73,67,99,89,66,29.75,29.67,11,3,11,0.00
2013-10-5,78,71,57,77,70,57,99,97,86,29.74,29.63,7,2,7,0.19
2013-10-6,57,53,50,57,50,45,99,87,71,29.65,29.60,10,3,10,0.00
2013-10-7,70,57,46,55,51,45,99,84,55,29.91,29.63,7,2,7,0.00
2013-10-8,77,63,51,60,54,50,99,75,49,29.99,29.90,7,1,7,0.00
2013-10-9,74,65,48,58,54,47,99,69,50,29.99,29.87,6,1,6,0.00
2013-10-10,80,71,55,68,63,55,99,79,62,29.94,29.20,9,1,9,0.00
2013-10-11,79,66,57,69,60,57,99,81,59,29.83,29.69,9,1,9,0.00
2013-10-12,70,63,61,68,62,59,99,96,91,29.82,29.73,7,2,7,0.07
2013-10-13,71,63,49,50,44,40,84,52,36,30.17,29.99,8,1,8,0.00
2013-10-14,69,56,43,52,46,40,92,71,51,30.14,29.84,8,1,8,0.00
2013-10-15,68,62,54,68,60,52,99,93,79,29.84,29.64,11,3,11,0.17
2013-10-16,56,51,44,53,47,44,99,88,75,29.81,29.73,8,1,8,0.00
2013-10-17,62,52,48,53,49,45,99,90,61,29.78,29.67,11,2,11,0.00
2013-10-18,58,51,44,50,45,43,99,82,63,29.82,29.73,10,2,10,0.00
2013-10-19,57,47,40,46,42,40,99,87,60,29.76,29.68,13,3,13,0.20
2013-10-20,70,54,42,53,46,40,96,77,50,29.71,29.59,19,6,19,0.00
2013-10-21,55,50,40,50,43,36,93,80,59,29.82,29.66,12,2,12,0.00
2013-10-22,46,41,36,46,40,35,99,99,95,29.79,29.62,15,5,15,0.06
2013-10-23,48,41,35,39,36,33,99,82,60,29.90,29.74,12,3,12,0.00
2013-10-24,40,37,31,39,33,28,97,85,67,30.16,29.87,11,1,11,0.00
2013-10-25,54,40,28,40,33,26,96,77,51,30.26,29.99,11,2,11,0.00
2013-10-26,62,52,39,47,38,32,75,60,44,29.91,29.76,16,3,16,0.00
2013-10-27,59,45,33,40,35,30,89,69,46,29.90,29.79,8,1,8,0.00
2013-10-28,66,50,35,49,40,33,92,72,48,30.04,29.83,7,0,7,0.00
2013-10-29,60,50,41,56,46,36,99,87,70,30.04,29.85,13,2,13,0.14
2013-10-30,69,62,55,68,62,55,99,99,99,29.86,29.60,11,2,11,0.25
2013-10-31,67,60,48,66,60,47,99,99,99,29.60,29.14,4,0,4,1.15
2013-11-1,58,49,44,52,47,43,99,92,73,29.61,29.36,1,0,2,0.00
2013-11-2,54,46,38,46,43,37,99,89,65,29.95,29.59,4,0,4,0.04
2013-11-3,57,45,35,45,39,34,99,81,56,30.07,29.93,1,0,1,0.00
2013-11-4,57,51,45,51,46,41,92,83,72,30.00,29.88,2,0,2,0.00
2013-11-5,60,55,52,58,54,50,99,95,89,30.05,29.76,6,0,6,0.12
2013-11-6,58,48,37,58,48,35,99,98,95,30.02,29.67,2,1,2,0.30
2013-11-7,54,41,31,45,36,31,99,85,59,30.13,30.01,2,0,2,0.00
2013-11-8,55,43,31,42,37,30,99,81,58,30.14,29.82,2,0,3,0.00
2013-11-9,66,53,44,50,43,40,88,71,49,30.00,29.78,2,0,2,0.00
2013-11-10,49,42,37,41,37,34,90,83,73,30.19,30.00,8,0,8,0.00
2013-11-11,62,44,31,52,41,30,99,88,71,30.27,29.89,5,1,5,0.08
2013-11-12,34,27,22,28,23,20,94,85,70,30.53,30.29,5,0,5,0.01
2013-11-13,44,31,20,29,24,19,96,76,50,30.44,30.04,2,0,2,0.00
2013-11-14,56,42,29,34,30,24,82,64,39,30.03,29.80,2,1,2,0.00
2013-11-15,56,46,39,45,38,32,93,75,58,29.83,29.71,1,0,1,0.00
2013-11-16,62,60,46,62,59,45,99,98,91,29.69,29.38,14,2,14,0.01
2013-11-17,70,64,62,69,64,62,99,99,95,29.39,29.22,7,2,7,0.00
2013-11-18,53,40,36,44,33,30,99,77,55,30.07,29.44,3,0,3,0.00
2013-11-19,45,36,30,36,32,28,94,84,69,30.13,29.39,2,0,2,0.00
2013-11-20,46,39,32,44,37,30,98,92,78,30.00,29.20,3,0,3,0.08
2013-11-21,50,48,45,50,48,43,99,98,93,29.98,29.25,2,0,2,0.27
2013-11-22,48,38,30,47,38,30,99,98,94,30.30,29.36,7,1,7,0.02
2013-11-23,31,25,17,30,22,13,99,85,70,30.49,29.67,7,1,7,0.00
2013-11-24,29,20,13,20,15,11,92,81,62,30.54,29.59,2,0,2,0.00
2013-11-25,34,30,25,27,24,19,80,75,64,30.19,29.32,2,0,2,0.00
2013-11-26,38,30,21,32,25,14,91,80,69,29.99,29.24,4,0,4,0.00
2013-11-27,29,23,14,16,13,10,84,67,56,30.09,29.44,3,0,3,0.00
2013-11-28,43,29,19,29,22,14,86,75,58,30.27,29.99,2,0,2,0.00
2013-11-29,42,31,21,30,25,18,91,80,62,30.37,30.15,1,0,1,0.00
2013-11-30,55,44,30,42,37,28,94,77,59,30.14,29.85,11,3,11,0.00
2013-12-1,54,42,34,44,38,34,99,84,64,29.89,29.68,5,1,5,0.00
2013-12-2,50,40,34,47,39,32,99,95,87,29.69,29.45,8,1,8,0.00
2013-12-3,54,48,41,54,47,41,99,99,99,29.47,29.39,11,3,11,0.00
2013-12-4,64,52,39,62,51,38,99,97,90,29.61,29.27,17,4,17,0.00
2013-12-5,39,32,28,38,30,25,95,92,87,29.80,29.61,17,8,17,0.00